MSC Bremen — A8LK7 — position and weather

sailwx.info

Track history (hours):
 
Tides and Currents Weather Stations Pressure Air Temp Water Temp Dewpoint Dewpoint Depression Visibility Wind Speed Wind Dir Waves Ship Positions

MSC Bremen

Last reported at 2014-Oct-25 19:33 UTC. Time now 2014-Oct-25 23:39 UTC.
Position S 35°04' W 056°01'.

Length 294 m; ; draft 13.7 m.

Type: Ship (hazmat cat A). MMSI: 636091270.

Date/timePositionNaut miles runAvg speedWind from/ knotsBaromVisibWave heightAir tempDewpointWater temp
2014-Oct-25 19:33S 35°04' W 056°01'9 9.1
2014-Oct-25 18:33S 35°09' W 056°11'3514.3
2014-Oct-25 16:06S 35°10' W 056°54'813.8
2014-Oct-25 15:33S 35°08' W 057°03'3416.6
2014-Oct-25 13:32S 34°46' W 057°33'1414.8
2014-Oct-25 12:33S 34°44' W 057°51'1514.8
2014-Oct-25 11:33S 34°38' W 058°07'1212.1
2014-Oct-25 10:33S 34°35' W 058°22'1 0.7
2014-Oct-25 09:33S 34°35' W 058°22'0 0.0
2014-Oct-25 08:33S 34°35' W 058°22'0 0.0
2014-Oct-25 07:33S 34°35' W 058°22'0 0.0
2014-Oct-25 06:33S 34°35' W 058°22'0 0.0
2014-Oct-25 05:33S 34°35' W 058°22'0 0.0
2014-Oct-25 04:33S 34°35' W 058°22'0 0.0
2014-Oct-25 03:33S 34°35' W 058°22'0 0.0
2014-Oct-25 02:33S 34°35' W 058°22'0 0.0
2014-Oct-25 01:33S 34°35' W 058°22'0 0.0
2014-Oct-25 00:33S 34°35' W 058°22'0 0.0
2014-Oct-24 23:33S 34°35' W 058°22'0 0.0
2014-Oct-24 22:33S 34°35' W 058°22'0 0.0
2014-Oct-24 21:33S 34°35' W 058°22'0 0.0
2014-Oct-24 20:33S 34°35' W 058°22'0 0.0
2014-Oct-24 19:33S 34°35' W 058°22'0 0.0
2014-Oct-24 18:33S 34°35' W 058°22'0 0.0
2014-Oct-24 17:33S 34°35' W 058°22'0 0.0
2014-Oct-24 16:33S 34°35' W 058°22'0 0.0
2014-Oct-24 15:33S 34°35' W 058°22'2 2.2
2014-Oct-24 14:33S 34°36' W 058°20'1110.9
2014-Oct-24 13:33S 34°38' W 058°07'1414.4
2014-Oct-24 12:33S 34°44' W 057°51'1111.3
2014-Oct-24 11:34S 34°45' W 057°37'1615.5
2014-Oct-24 10:34S 34°52' W 057°20'1514.6
2014-Oct-24 09:33S 35°03' W 057°09'1413.6
2014-Oct-24 08:33S 35°10' W 056°54'1513.5
2014-Oct-24 07:27S 35°10' W 056°36'2211.6
2014-Oct-24 05:33S 35°08' W 056°09'10 9.9
2014-Oct-24 04:31S 35°05' W 055°57'1 0.6
2014-Oct-24 03:26S 35°05' W 055°58'1 0.7
2014-Oct-24 02:33S 35°05' W 055°57'2 2.3
2014-Oct-24 01:33S 35°05' W 055°60'5 5.4
2014-Oct-24 00:33S 35°04' W 055°53'1111.4
2014-Oct-23 23:34S 35°03' W 055°39'1413.8
2014-Oct-23 22:34S 35°03' W 055°23'30919.8
2014-Oct-23 07:00S 31°48' W 050°36'50920.8 010 / 181019.010.8 1.518.016.3
2014-Oct-22 06:33S 24°10' W 046°25'1212.1
2014-Oct-22 05:33S 23°60' W 046°18'5 1.6
2014-Oct-22 02:28S 23°55' W 046°21'0 0.0
2014-Oct-22 00:04S 23°55' W 046°21'0 0.0
2014-Oct-21 19:28S 23°55' W 046°21'0 0.0
2014-Oct-21 18:19S 23°55' W 046°21'0 0.0
2014-Oct-21 17:28S 23°55' W 046°21'0 0.0
2014-Oct-21 16:31S 23°55' W 046°21'0 0.0
2014-Oct-21 14:22S 23°55' W 046°21'0 0.0
2014-Oct-21 13:28S 23°55' W 046°21'0 0.0
2014-Oct-21 12:22S 23°55' W 046°21'0 0.0
2014-Oct-21 11:07S 23°55' W 046°21'0 0.0
2014-Oct-21 10:13S 23°55' W 046°21'0 0.0
2014-Oct-21 09:22S 23°55' W 046°21'0 0.0
2014-Oct-21 08:28S 23°55' W 046°21'0 0.0
2014-Oct-21 06:22S 23°55' W 046°21'0 0.0
2014-Oct-21 05:31S 23°55' W 046°21'0 0.0
2014-Oct-21 04:10S 23°55' W 046°21'0 0.0
2014-Oct-21 03:28S 23°55' W 046°21'0 0.0
2014-Oct-21 00:28S 23°55' W 046°21'0 0.0
2014-Oct-20 22:10S 23°55' W 046°21'1 2.3
2014-Oct-20 21:33S 23°56' W 046°20'6 5.5
2014-Oct-20 20:33S 24°01' W 046°21'9 9.6
2014-Oct-20 19:33S 24°10' W 046°24'9 1.7
2014-Oct-20 14:16S 24°19' W 046°22'4 0.5
2014-Oct-20 07:06S 24°23' W 046°23'32412.9
2014-Oct-19 06:00S 22°24' W 040°54'46719.4 050 / 201012.0 5.4 1.023.021.5
2014-Oct-18 06:00S 15°30' W 037°06'43218.0 080 / 161016.010.8 1.025.023.5
2014-Oct-17 06:00S 08°48' W 034°24'   130 / 171015.0 5.4 2.024.021.0
Track history (hours):
 
Tides and Currents Weather Stations Pressure Air Temp Water Temp Dewpoint Dewpoint Depression Visibility Wind Speed Wind Dir Waves Ship Positions

MSC Bremen

Last reported at 2014-Oct-25 19:33 UTC. Time now 2014-Oct-25 23:39 UTC.
Position S 35°04' W 056°01'.

Length 294 m; ; draft 13.7 m.

Type: Ship (hazmat cat A). MMSI: 636091270.

Date/timePositionNaut miles runAvg speedWind from/ knotsBaromVisibWave heightAir tempDewpointWater temp
2014-Oct-25 19:33S 35°04' W 056°01'9 9.1
2014-Oct-25 18:33S 35°09' W 056°11'3514.3
2014-Oct-25 16:06S 35°10' W 056°54'813.8
2014-Oct-25 15:33S 35°08' W 057°03'3416.6
2014-Oct-25 13:32S 34°46' W 057°33'1414.8
2014-Oct-25 12:33S 34°44' W 057°51'1514.8
2014-Oct-25 11:33S 34°38' W 058°07'1212.1
2014-Oct-25 10:33S 34°35' W 058°22'1 0.7
2014-Oct-25 09:33S 34°35' W 058°22'0 0.0
2014-Oct-25 08:33S 34°35' W 058°22'0 0.0
2014-Oct-25 07:33S 34°35' W 058°22'0 0.0
2014-Oct-25 06:33S 34°35' W 058°22'0 0.0
2014-Oct-25 05:33S 34°35' W 058°22'0 0.0
2014-Oct-25 04:33S 34°35' W 058°22'0 0.0
2014-Oct-25 03:33S 34°35' W 058°22'0 0.0
2014-Oct-25 02:33S 34°35' W 058°22'0 0.0
2014-Oct-25 01:33S 34°35' W 058°22'0 0.0
2014-Oct-25 00:33S 34°35' W 058°22'0 0.0
2014-Oct-24 23:33S 34°35' W 058°22'0 0.0
2014-Oct-24 22:33S 34°35' W 058°22'0 0.0
2014-Oct-24 21:33S 34°35' W 058°22'0 0.0
2014-Oct-24 20:33S 34°35' W 058°22'0 0.0
2014-Oct-24 19:33S 34°35' W 058°22'0 0.0
2014-Oct-24 18:33S 34°35' W 058°22'0 0.0
2014-Oct-24 17:33S 34°35' W 058°22'0 0.0
2014-Oct-24 16:33S 34°35' W 058°22'0 0.0
2014-Oct-24 15:33S 34°35' W 058°22'2 2.2
2014-Oct-24 14:33S 34°36' W 058°20'1110.9
2014-Oct-24 13:33S 34°38' W 058°07'1414.4
2014-Oct-24 12:33S 34°44' W 057°51'1111.3
2014-Oct-24 11:34S 34°45' W 057°37'1615.5
2014-Oct-24 10:34S 34°52' W 057°20'1514.6
2014-Oct-24 09:33S 35°03' W 057°09'1413.6
2014-Oct-24 08:33S 35°10' W 056°54'1513.5
2014-Oct-24 07:27S 35°10' W 056°36'2211.6
2014-Oct-24 05:33S 35°08' W 056°09'10 9.9
2014-Oct-24 04:31S 35°05' W 055°57'1 0.6
2014-Oct-24 03:26S 35°05' W 055°58'1 0.7
2014-Oct-24 02:33S 35°05' W 055°57'2 2.3
2014-Oct-24 01:33S 35°05' W 055°60'5 5.4
2014-Oct-24 00:33S 35°04' W 055°53'1111.4
2014-Oct-23 23:34S 35°03' W 055°39'1413.8
2014-Oct-23 22:34S 35°03' W 055°23'30919.8
2014-Oct-23 07:00S 31°48' W 050°36'50920.8 010 / 181019.010.8 1.518.016.3
2014-Oct-22 06:33S 24°10' W 046°25'1212.1
2014-Oct-22 05:33S 23°60' W 046°18'5 1.6
2014-Oct-22 02:28S 23°55' W 046°21'0 0.0
2014-Oct-22 00:04S 23°55' W 046°21'0 0.0
2014-Oct-21 19:28S 23°55' W 046°21'0 0.0
2014-Oct-21 18:19S 23°55' W 046°21'0 0.0
2014-Oct-21 17:28S 23°55' W 046°21'0 0.0
2014-Oct-21 16:31S 23°55' W 046°21'0 0.0
2014-Oct-21 14:22S 23°55' W 046°21'0 0.0
2014-Oct-21 13:28S 23°55' W 046°21'0 0.0
2014-Oct-21 12:22S 23°55' W 046°21'0 0.0
2014-Oct-21 11:07S 23°55' W 046°21'0 0.0
2014-Oct-21 10:13S 23°55' W 046°21'0 0.0
2014-Oct-21 09:22S 23°55' W 046°21'0 0.0
2014-Oct-21 08:28S 23°55' W 046°21'0 0.0
2014-Oct-21 06:22S 23°55' W 046°21'0 0.0
2014-Oct-21 05:31S 23°55' W 046°21'0 0.0
2014-Oct-21 04:10S 23°55' W 046°21'0 0.0
2014-Oct-21 03:28S 23°55' W 046°21'0 0.0
2014-Oct-21 00:28S 23°55' W 046°21'0 0.0
2014-Oct-20 22:10S 23°55' W 046°21'1 2.3
2014-Oct-20 21:33S 23°56' W 046°20'6 5.5
2014-Oct-20 20:33S 24°01' W 046°21'9 9.6
2014-Oct-20 19:33S 24°10' W 046°24'9 1.7
2014-Oct-20 14:16S 24°19' W 046°22'4 0.5
2014-Oct-20 07:06S 24°23' W 046°23'32412.9
2014-Oct-19 06:00S 22°24' W 040°54'46719.4 050 / 201012.0 5.4 1.023.021.5
2014-Oct-18 06:00S 15°30' W 037°06'43218.0 080 / 161016.010.8 1.025.023.5
2014-Oct-17 06:00S 08°48' W 034°24'   130 / 171015.0 5.4 2.024.021.0

Dump ship's entire track history